Regional Weather Roundup
Issued by NWS Memphis, TN

Home | Current Version | Previous Version | Text Only | Print | Product List | Glossary On
Versions: 1 2 3 4 5 6 7 8 9 10 11 12 13 14 15 16 17 18 19 20 21 22 23 24 25 26 27 28 29 30 31 32 33 34 35 36 37 38 39 40 41 42 43 44 45 46 47 48 49 50
000
ASUS44 KMEG 300910
RWRMEG
MEMPHIS CWA HOURLY WEATHER ROUNDUP
NATIONAL WEATHER SERVICE MEMPHIS TN
400 AM CDT SAT APR 30 2016

...WEST TENNESSEE...

CITY           SKY/WX    TMP DP  RH WIND       PRES   REMARKS
MEMPHIS INTL   LGT RAIN  66  62  87 SE5       29.81F
NWS MEMPHIS      N/A     64 N/A N/A MISG        N/A
JACKSON        CLOUDY    62  61  96 CALM      29.85S
LEXINGTON      CLOUDY    61  61 100 CALM      29.87R
DYERSBURG      CLOUDY    63  61  94 CALM        N/A
UNION CITY     CLOUDY    61  59  94 E8        29.83S


...EASTERN ARKANSAS...

CITY           SKY/WX    TMP DP  RH WIND       PRES   REMARKS
JONESBORO      RAIN      63  32  31 NW5       29.83R
WEST MEMPHIS   LGT RAIN  64  64 100 SE9       29.79F
BATESVILLE     CLOUDY    64  63  94 E12G17    29.78R
NEWPORT        RAIN      64  64 100 SE8       29.81S
WALNUT RIDGE   CLOUDY    63  59  88 E14       29.81S
BLYTHEVILLE    TSTM      63  32  31 N9G18     29.85R
SEARCY         CLOUDY    66  64  94 S10       29.78F
STUTTGART      CLOUDY    66  63  88 S21G28    29.81R
PINE BLUFF     HVY RAIN  68  65  90 SW13G24   29.81R
MONTICELLO     TSTM      72  70  93 SW9       29.79R FOG


...NORTH MISSISSIPPI...

CITY           SKY/WX    TMP DP  RH WIND       PRES   REMARKS
TUPELO         CLOUDY    65  61  87 SE9       29.85F
OXFORD         CLOUDY    64  59  82 S9        29.86R
BATESVILLE     FAIR      66  62  87 SE3       29.82F
OLIVE BRANCH   CLEAR     63 N/A N/A SE6       29.83F
TUNICA         LGT RAIN  64  63  94 SE12      29.80F
CORINTH        CLOUDY    63  61  94 E5        29.85F
GREENWOOD      CLOUDY    67  63  87 S5        29.81F
COLUMBUS       CLOUDY    63  62  96 S2        29.87S
STARKVILLE     FAIR      63  61  94 SE7       29.85F
GOLDEN TRIANGL   N/A    N/A N/A N/A MISG        N/A


...SOUTHEAST MISSOURI...

CITY           SKY/WX    TMP DP  RH WIND       PRES   REMARKS
KENNETT        RAIN      63  63 100 NE5       29.84R
WEST PLAINS    RAIN      59  57  93 E7        29.79F FOG
POPLAR BLUFF   RAIN      60  59  96 E6        29.83F FOG
CAPE GIRARDEAU RAIN      60  58  92 NE10      29.84F FOG


...NORTHWEST ALABAMA...

CITY           SKY/WX    TMP DP  RH WIND       PRES   REMARKS


...MIDDLE TENNESSEE...

CITY           SKY/WX    TMP DP  RH WIND       PRES   REMARKS
NASHVILLE      CLOUDY    65  60  84 CALM      29.91S
CLARKSVILLE    LGT RAIN  61  58  90 E6        29.89F
COLUMBIA         N/A    N/A N/A N/A CALM      29.88S


...WESTERN KENTUCKY...

CITY           SKY/WX    TMP DP  RH WIND       PRES   REMARKS
PADUCAH        LGT RAIN  61  58  90 E8        29.85F
FORT CAMPBELL  LGT RAIN  62  60  91 E7        29.88F


...CENTRAL ARKANSAS...

CITY           SKY/WX    TMP DP  RH WIND       PRES   REMARKS
LITTLE ROCK    LGT RAIN  67  63  87 S21G33    29.79R FOG


SKY/WX REPORTED AS FAIR MEANS FEW OR NO CLOUDS BELOW
12 THOUSAND FEET.





USA.gov is the U.S. government's official web portal to all federal, state and local government web resources and services.